Regional Weather Roundup
Issued by NWS Charleston, SC

Current Version | Previous Version | Text Only | Print | Product List | Glossary Off
Versions: 1 2 3 4 5 6 7 8 9 10 11 12 13 14 15 16 17 18 19 20 21 22 23 24 25 26 27 28 29 30 31 32 33 34 35 36 37 38 39 40 41 42 43 44 45 46 47 48 49 50
000 ASUS42 KCHS 192010 RWRCHS REGIONAL WEATHER ROUNDUP NATIONAL WEATHER SERVICE CHARLESTON SC 400 PM EDT FRI SEP 19 2014 NOTE: "FAIR" INDICATES FEW OR NO CLOUDS BELOW 12,000 FEET WITH NO SIGNIFICANT WEATHER AND/OR OBSTRUCTIONS TO VISIBILITY. NOT ALL STATIONS ARE QUALITY CONTROLLED BY THE NATIONAL WEATHER SERVICE. USE DATA WITH CAUTION...ESPECIALLY DEWPOINT OBSERVATIONS. SCZ027-030-031-034>040-042>050-192100- ...SOUTH CAROLINA... CITY SKY/WX TMP DP RH WIND PRES REMARKS N CHARLESTON LGT RAIN 73 68 84 NE20 30.08R WATERFRONT PRK N/A 81 N/A N/A E22 N/A FORT JOHNSON NOT AVBL MOUNT PLEASANT MOCLDY 72 64 78 N10G16 30.08R JOHNS ISLAND MOCLDY 81 79 94 E16G24 30.05F PINOPOLIS N/A 79 70 73 SE5G14 30.02R MONCKS CORNER N/A 73 73 100 E6 30.08S SUMMERVILLE LGT RAIN 73 72 94 E8 30.08F BEAUFORT MCAS CLOUDY 83 70 64 E12G25 30.04S BEAUFORT ARPT FAIR 81 72 74 E15 30.03F HAZE HILTON HEAD IS MOSUNNY 81 72 74 NE8 30.04S GEORGETOWN NOT AVBL WALTERBORO MOCLDY 75 75 100 E9G17 30.07F ORANGEBURG PTSUNNY 81 66 60 SE13 30.07S BARNWELL FAIR 77 72 83 N8 30.07S AIKEN MOCLDY 81 70 69 E10 30.11F MANNING CLOUDY 73 73 100 NE3 30.08F KINGSTREE NOT AVBL COLUMBIA PTSUNNY 82 65 56 NE10 30.08S SUMTER MOSUNNY 82 63 52 NE13 30.08S FLORENCE MOSUNNY 81 64 56 E9G20 30.11R MYRTLE BEACH PTSUNNY 81 68 65 E16 30.09S N MYRTLE BEACH CLOUDY 78 68 71 NE8 30.10S $$ GAZ063-065-086>088-099>101-113>116-118-119-134-136>141-150-192100- ...GEORGIA... CITY SKY/WX TMP DP RH WIND PRES REMARKS SAVANNAH ARPT CLOUDY 83 69 62 E12 30.02F HUNTER AAF CLOUDY 81 72 75 NE10 30.00F FORT STEWART CLOUDY 79 70 73 E14 30.00F STATESBORO NOT AVBL SYLVANIA MOCLDY 87 74 65 E14 30.03S HX 95 CLAXTON TSTM 77 73 88 N6 30.02R THOMSON MOSUNNY 81 73 75 E6G16 30.11F AUGUSTA-BUSH PTSUNNY 83 68 60 E10 30.05F AUGUSTA-DANIEL PTSUNNY 83 67 58 NE12 30.07F SWAINSBORO FAIR 86 72 62 E8 30.03S HX 92 VIDALIA PTSUNNY 86 70 58 E8 30.01F HX 90 ALMA CLOUDY 84 72 67 CALM 29.98F WAYCROSS CLOUDY 88 74 63 SE8 29.98F HX 96 JESUP FAIR 79 72 78 E7 30.00F BRUNSWICK CLOUDY 84 70 61 E13 29.99F SAINT SIMONS CLOUDY 83 70 64 E12 29.98F $$ SCZ027-028-034-036>038-045-046-048>050-GAZ119-141-192100- ...LAKE AND SUPPLEMENTAL COASTAL OBSERVATIONS... STATION/POSITION TIME TEMP WIND PRES WAVE SWELL AIR SEA DIR/SP/G HT/PER HT/PER/DIR (UTC) (F) (DEG/KT/KT) (MB) (FT/S) (FT/S/D) UPR LAKE MARION NOT AVBL WINYAH BAY 1900 80 80/ 15 1018.0S LAKE MURRAY 1900 76 10/ 2/ 5 1018.6F ACE BASIN NERRS 1900 81 90/ 5 1018.0S FORT PULASKI 2000 80 50/ 13/ 16 1016.9F SAPELO ISLAND 1900 83 70/ 9 1017.0S $$ ANZ835-935-AMZ111-154-330-350-352-354-374-450-454-472-192100- ...C-MAN AND BUOY OBSERVATIONS... STATION/POSITION TIME TEMP WIND PRES WAVE SWELL AIR SEA DIR/SP/G HT/PER HT/PER/DIR (UTC) (F) (DEG/KT/KT) (MB) (FT/S) (FT/S/D) FOLLY BEACH CMAN 2000 79 90/ 22/ 24 1018.1R BUOY 41004 2000 78 82 90/ 19/ 21 1016.5F 6/ 6 BUOY 41008 2000 78 84 100/ 14/ 16 1015.9S 3/ 4 2/ 50/ 8 5E ST. MARYS GA 2000 84 N/A 2/11 2/100/11 FRYING PAN BUOY NOT AVBL BUOY 41025 2000 78 50/ 16/ 21 1020.6F 5/ 6 3/ 60/10 CAPE LOOKOUT NC 2000 73 40/ 26/ 31 1020.4F BUOY 41002 1928 79 82 60/ 14/ 16 1017.7F 4/ 4 2/ 90/ 8 BUOY 41010 2000 83 85 70/ 12/ 14 1013.8F 3/10 2/ 40/10 BUOY 41012 NOT AVBL ST AUGUSTINE FL 2000 80 110/ 15/ 16 1015.4F CAPERS NEARSHORE 1900 79 100/ 21/ 23 N/A FRIPP NEARSHORE NOT AVBL $$

USA.gov is the U.S. government's official web portal to all federal, state and local government web resources and services.